| time (UTC) | temp C | wind direction | speed KPH | gust KPH | rain 1hr cm | rain 24hr cm | rain mn cm | humidity % | barometer mb |
| 20260509203022 | 16 | 100 | 0.0 | 0.0 | 0.00 | 0.00 | 0.00 | 68 | 1011.7 |
| 20260509201518 | 16 | 100 | 0.0 | 0.0 | 0.00 | 0.00 | 0.00 | 68 | 1011.8 |
| 20260509200017 | 17 | 100 | 0.0 | 3.2 | 0.00 | 0.00 | 0.00 | 66 | 1011.8 |
| 20260509194518 | 17 | 138 | 0.0 | 0.0 | 0.00 | 0.00 | 0.00 | 67 | 1011.8 |
| 20260509193016 | 17 | 30 | 0.0 | 0.0 | 0.00 | 0.00 | 0.00 | 66 | 1011.7 |
| 20260509191516 | 17 | 333 | 0.0 | 0.0 | 0.00 | 0.00 | 0.00 | 67 | 1011.7 |
| 20260509190018 | 18 | 333 | 0.0 | 0.0 | 0.00 | 0.00 | 0.00 | 62 | 1011.7 |
| 20260509184525 | 19 | 333 | 0.0 | 0.0 | 0.00 | 0.00 | 0.00 | 60 | 1011.5 |
| 20260509183022 | 20 | 333 | 0.0 | 0.0 | 0.00 | 0.00 | 0.00 | 58 | 1011.4 |
| 20260509181517 | 20 | 342 | 0.0 | 0.0 | 0.00 | 0.00 | 0.00 | 56 | 1011.3 |
| 20260509180017 | 20 | 18 | 0.0 | 6.4 | 0.00 | 0.00 | 0.00 | 55 | 1011.3 |
| 20260509174511 | 21 | 30 | 0.0 | 14.5 | 0.00 | 0.00 | 0.00 | 53 | 1011.3 |
| 20260509173015 | 21 | 21 | 3.2 | 12.9 | 0.00 | 0.00 | 0.00 | 52 | 1011.1 |
| 20260509171520 | 21 | 33 | 4.8 | 20.9 | 0.00 | 0.00 | 0.00 | 49 | 1011.1 |
| 20260509170008 | 22 | 38 | 1.6 | 20.9 | 0.00 | 0.00 | 0.00 | 49 | 1011.2 |
| 20260509164543 | 22 | 22 | 3.2 | 20.9 | 0.00 | 0.00 | 0.00 | 48 | 1011.2 |
| 20260509163054 | 22 | 18 | 0.0 | 16.1 | 0.00 | 0.00 | 0.00 | 48 | 1011.4 |
| 20260509161549 | 22 | 355 | 6.4 | 20.9 | 0.00 | 0.00 | 0.00 | 47 | 1011.6 |
| 20260509160038 | 22 | 26 | 0.0 | 9.7 | 0.00 | 0.00 | 0.00 | 46 | 1011.5 |
| 20260509154538 | 22 | 24 | 0.0 | 8.0 | 0.00 | 0.00 | 0.00 | 45 | 1011.8 |
| 20260509153040 | 22 | 288 | 0.0 | 8.0 | 0.00 | 0.00 | 0.00 | 46 | 1011.8 |
| 20260509151534 | 23 | 15 | 1.6 | 9.7 | 0.00 | 0.00 | 0.00 | 43 | 1011.9 |
| 20260509150031 | 22 | 338 | 3.2 | 9.7 | 0.00 | 0.00 | 0.00 | 45 | 1012.1 |
| 20260509144531 | 23 | 291 | 3.2 | 14.5 | 0.00 | 0.00 | 0.00 | 44 | 1012.1 |
| 20260509143034 | 23 | 186 | 0.0 | 3.2 | 0.00 | 0.00 | 0.00 | 40 | 1012.2 |
| 20260509141528 | 23 | 196 | 0.0 | 4.8 | 0.00 | 0.00 | 0.00 | 42 | 1012.4 |
| 20260509140022 | 22 | 162 | 0.0 | 14.5 | 0.00 | 0.00 | 0.00 | 46 | 1012.6 |
| 20260509134519 | 22 | 137 | 0.0 | 4.8 | 0.00 | 0.00 | 0.00 | 46 | 1012.7 |
| 20260509133019 | 22 | 60 | 0.0 | 14.5 | 0.00 | 0.00 | 0.00 | 46 | 1012.9 |
| 20260509131517 | 22 | 240 | 0.0 | 1.6 | 0.00 | 0.00 | 0.00 | 46 | 1013.1 |
| 20260509130016 | 22 | 261 | 0.0 | 4.8 | 0.00 | 0.00 | 0.00 | 44 | 1013.3 |
| 20260509124512 | 22 | 338 | 0.0 | 0.0 | 0.00 | 0.00 | 0.00 | 50 | 1013.4 |
| 20260509123012 | 21 | 302 | 3.2 | 19.3 | 0.00 | 0.00 | 0.00 | 52 | 1013.6 |
| 20260509121510 | 21 | 325 | 0.0 | 8.0 | 0.00 | 0.00 | 0.00 | 51 | 1013.7 |
| 20260509120007 | 21 | 355 | 0.0 | 0.0 | 0.00 | 0.00 | 0.00 | 53 | 1014.0 |
| 20260509114514 | 20 | 82 | 1.6 | 9.7 | 0.00 | 0.00 | 0.00 | 53 | 1014.1 |
| 20260509113004 | 22 | 337 | 1.6 | 9.7 | 0.00 | 0.00 | 0.00 | 52 | 1014.2 |
| 20260509111503 | 20 | 321 | 1.6 | 6.4 | 0.00 | 0.00 | 0.00 | 55 | 1014.4 |
| 20260509104558 | 20 | 182 | 0.0 | 6.4 | 0.00 | 0.00 | 0.00 | 52 | 1014.8 |
| 20260509103056 | 19 | 182 | 0.0 | 3.2 | 0.00 | 0.00 | 0.00 | 56 | 1014.9 |
| 20260509101555 | 19 | 209 | 0.0 | 3.2 | 0.00 | 0.00 | 0.00 | 56 | 1015.0 |
| 20260509100053 | 20 | 83 | 0.0 | 6.4 | 0.00 | 0.00 | 0.00 | 55 | 1015.0 |
| 20260509094552 | 19 | 329 | 0.0 | 9.7 | 0.00 | 0.00 | 0.00 | 56 | 1015.1 |
| 20260509093049 | 19 | 128 | 0.0 | 4.8 | 0.00 | 0.00 | 0.00 | 57 | 1015.1 |
| 20260509091554 | 18 | 326 | 0.0 | 4.8 | 0.00 | 0.00 | 0.00 | 61 | 1015.2 |
| 20260509090058 | 18 | 319 | 0.0 | 3.2 | 0.00 | 0.00 | 0.00 | 62 | 1015.3 |
| 20260509084545 | 17 | 290 | 0.0 | 12.9 | 0.00 | 0.00 | 0.00 | 62 | 1015.4 |
| 20260509083048 | 17 | 339 | 0.0 | 1.6 | 0.00 | 0.00 | 0.00 | 65 | 1015.4 |
| 20260509081541 | 16 | 317 | 0.0 | 6.4 | 0.00 | 0.00 | 0.00 | 67 | 1015.5 |
| 20260509080055 | 16 | 257 | 0.0 | 0.0 | 0.00 | 0.00 | 0.00 | 64 | 1015.7 |
| 20260509074537 | 16 | 311 | 0.0 | 0.0 | 0.00 | 0.00 | 0.00 | 69 | 1015.7 |
| 20260509073029 | 15 | 298 | 0.0 | 0.0 | 0.00 | 0.00 | 0.00 | 72 | 1015.7 |
| 20260509071527 | 14 | 325 | 0.0 | 0.0 | 0.00 | 0.00 | 0.00 | 76 | 1015.7 |
| 20260509070032 | 13 | 350 | 0.0 | 0.0 | 0.00 | 0.00 | 0.00 | 76 | 1015.8 |
| 20260509064521 | 13 | 17 | 0.0 | 0.0 | 0.00 | 0.00 | 0.00 | 79 | 1015.8 |
| 20260509063016 | 11 | 266 | 0.0 | 0.0 | 0.00 | 0.00 | 0.00 | 81 | 1015.7 |
| 20260509061517 | 11 | 216 | 0.0 | 0.0 | 0.00 | 0.00 | 0.00 | 83 | 1015.9 |
| 20260509060013 | 10 | 216 | 0.0 | 0.0 | 0.00 | 0.00 | 0.00 | 88 | 1016.0 |
| 20260509054511 | 10 | 214 | 0.0 | 0.0 | 0.00 | 0.00 | 0.00 | 90 | 1016.1 |
| 20260509053019 | 8 | 214 | 0.0 | 0.0 | 0.00 | 0.00 | 0.00 | 91 | 1015.9 |
| 20260509051509 | 7 | 214 | 0.0 | 0.0 | 0.00 | 0.00 | 0.00 | 92 | 1015.8 |
| 20260509050017 | 7 | 214 | 0.0 | 0.0 | 0.00 | 0.00 | 0.00 | 92 | 1015.9 |
| 20260509044505 | 7 | 214 | 0.0 | 0.0 | 0.00 | 0.00 | 0.00 | 93 | 1015.8 |
| 20260509043004 | 6 | 214 | 0.0 | 0.0 | 0.00 | 0.00 | 0.00 | 92 | 1015.7 |
| 20260509041601 | 6 | 214 | 0.0 | 0.0 | 0.00 | 0.00 | 0.00 | 92 | 1015.7 |
| 20260509040059 | 6 | 214 | 0.0 | 0.0 | 0.00 | 0.00 | 0.00 | 91 | 1015.4 |
| 20260509034605 | 7 | 214 | 0.0 | 0.0 | 0.00 | 0.00 | 0.00 | 91 | 1015.6 |
| 20260509033108 | 6 | 214 | 0.0 | 0.0 | 0.00 | 0.00 | 0.00 | 91 | 1015.5 |
| 20260509031555 | 7 | 214 | 0.0 | 0.0 | 0.00 | 0.00 | 0.00 | 91 | 1015.6 |
| 20260509030052 | 7 | 214 | 0.0 | 0.0 | 0.00 | 0.00 | 0.00 | 91 | 1015.7 |
| 20260509024600 | 7 | 214 | 0.0 | 0.0 | 0.00 | 0.00 | 0.00 | 91 | 1015.6 |
| 20260509023051 | 7 | 214 | 0.0 | 0.0 | 0.00 | 0.00 | 0.00 | 90 | 1015.8 |
| 20260509021549 | 7 | 214 | 0.0 | 0.0 | 0.00 | 0.00 | 0.00 | 90 | 1015.9 |
| 20260509020048 | 8 | 214 | 0.0 | 0.0 | 0.00 | 0.00 | 0.00 | 89 | 1015.8 |
| 20260509014543 | 8 | 214 | 0.0 | 0.0 | 0.00 | 0.00 | 0.00 | 88 | 1015.7 |
| 20260509013048 | 8 | 214 | 0.0 | 0.0 | 0.00 | 0.00 | 0.00 | 88 | 1015.7 |
| 20260509011545 | 8 | 214 | 0.0 | 0.0 | 0.00 | 0.00 | 0.00 | 87 | 1015.7 |
| 20260509010040 | 8 | 214 | 0.0 | 0.0 | 0.00 | 0.00 | 0.00 | 87 | 1015.7 |
| 20260509004551 | 8 | 214 | 0.0 | 0.0 | 0.00 | 0.00 | 0.00 | 85 | 1015.7 |
| 20260509003034 | 9 | 215 | 0.0 | 0.0 | 0.00 | 0.00 | 0.00 | 84 | 1015.7 |
| 20260509001530 | 10 | 229 | 0.0 | 3.2 | 0.00 | 0.00 | 0.00 | 79 | 1015.7 |
| 20260509000039 | 10 | 123 | 0.0 | 0.0 | 0.00 | 0.00 | 0.00 | 79 | 1015.7 |
| 20260508234524 | 11 | 123 | 0.0 | 0.0 | 0.00 | 0.00 | 0.00 | 76 | 1015.7 |
| 20260508233020 | 12 | 123 | 0.0 | 0.0 | 0.00 | 0.00 | 0.00 | 73 | 1015.7 |
| 20260508231518 | 12 | 111 | 0.0 | 6.4 | 0.00 | 0.00 | 0.00 | 71 | 1015.6 |
| 20260508230017 | 12 | 98 | 1.6 | 12.9 | 0.00 | 0.00 | 0.00 | 70 | 1015.5 |
| 20260508224538 | 12 | 104 | 0.0 | 6.4 | 0.00 | 0.00 | 0.00 | 70 | 1015.5 |
| 20260508223017 | 12 | 88 | 0.0 | 3.2 | 0.00 | 0.00 | 0.00 | 70 | 1015.6 |
| 20260508221515 | 12 | 91 | 0.0 | 0.0 | 0.00 | 0.00 | 0.00 | 70 | 1015.5 |
| 20260508220011 | 12 | 123 | 0.0 | 0.0 | 0.00 | 0.00 | 0.00 | 71 | 1015.6 |
| 20260508214511 | 12 | 114 | 0.0 | 0.0 | 0.00 | 0.00 | 0.00 | 71 | 1015.5 |
| 20260508213010 | 12 | 86 | 0.0 | 0.0 | 0.00 | 0.00 | 0.00 | 72 | 1015.5 |
| 20260508211512 | 13 | 108 | 0.0 | 0.0 | 0.00 | 0.00 | 0.00 | 71 | 1015.6 |
| 20260508210008 | 13 | 30 | 0.0 | 0.0 | 0.00 | 0.00 | 0.00 | 70 | 1015.5 |
| 20260508204507 | 13 | 32 | 0.0 | 1.6 | 0.00 | 0.00 | 0.00 | 71 | 1015.4 |